Ellensburg, WA

5:23 AM PST on February 26, 2017 (GMT -0800)
Bowers

Weather History for KELN - January, 2013

Change the Weather History Date:

Monday, January 21, 2013

  Actual Average (KYKM) Record (KYKM)
Temperature  
Mean Temperature 20 °F -  
Max Temperature 21 °F 38 °F 62 °F (1968)
Min Temperature 19 °F 23 °F -10 °F (1957)
Degree Days  
Heating Degree Days 45    
Moisture  
Dew Point 17 °F    
Average Humidity 85    
Maximum Humidity 93    
Minimum Humidity 80    
Precipitation  
Precipitation 0.00 in - - ()
Sea Level Pressure  
Sea Level Pressure 30.37 in    
Wind  
Wind Speed 2 mph (West)    
Max Wind Speed 6 mph    
Max Gust Speed -    
Visibility 3 miles    
Events Fog    
Averages and records for this station are not official NWS values.
T = Trace of Precipitation, MM = Missing Value Source: NWS Daily Summary

Daily Weather History Graph

Daily Weather History Graph

Search for Another Location

Airport or City:

Trip Planner

Search our weather history database for the weather conditions in past years. The results will help you decide how hot, cold, wet, or windy it might be!

Date:

Astronomy

Jan. 21, 2013 Rise Set
Actual Time 7:38 AM PST 4:48 PM PST
Civil Twilight 7:05 AM PST 5:22 PM PST
Nautical Twilight 6:27 AM PST 5:59 PM PST
Astronomical Twilight 5:51 AM PST 6:36 PM PST
Moon 12:30 PM PST (1/21) 3:12 AM PST (1/21)
Length of Visible Light 10h 17m
Length of Day
9h 10m
Waxing Gibbous, 76% of the Moon is Illuminated
Jan 21
Waxing Gibbous
Jan 26
Full
Feb 3
Last Quarter
Feb 9
New
Feb 17
First Quarter

Hourly Weather History & Observations

Time (PST) Temp. Windchill Dew Point Humidity Pressure Visibility Wind Dir Wind Speed Gust Speed Precip Events Conditions
1:53 AM 21.0 °F - 17.1 °F 85% 30.45 in - Calm Calm - N/A   Overcast
2:53 AM 21.0 °F 13.4 °F 16.0 °F 81% 30.45 in - West 5.8 mph - N/A   Overcast
3:53 AM 19.0 °F 13.9 °F 15.1 °F 85% 30.45 in - NW 3.5 mph - N/A   Overcast
4:53 AM 19.0 °F 12.3 °F 15.1 °F 85% 30.45 in - West 4.6 mph - N/A   Unknown
5:09 AM 19.4 °F 12.8 °F 15.8 °F 86% 30.37 in - NW 4.6 mph - N/A   Overcast
5:53 AM 19.9 °F - 16.0 °F 85% 30.44 in - Calm Calm - N/A   Overcast
6:53 AM 19.9 °F - 17.1 °F 89% 30.43 in - Calm Calm - N/A   Overcast
7:53 AM 21.0 °F - 17.1 °F 85% 30.42 in - Calm Calm - N/A   Overcast
8:05 AM 19.4 °F - 15.8 °F 86% 30.34 in 0.5 mi Calm Calm - N/A Fog Light Freezing Fog
8:32 AM 19.4 °F - 15.8 °F 86% 30.35 in 1.0 mi Calm Calm - N/A   Overcast
8:53 AM 19.9 °F - 17.1 °F 89% 30.43 in 1.0 mi Calm Calm - N/A   Overcast
9:06 AM 19.4 °F 14.3 °F 15.8 °F 86% 30.35 in 0.8 mi West 3.5 mph - N/A   Overcast
9:14 AM 19.4 °F - 15.8 °F 86% 30.35 in 1.0 mi Calm Calm - N/A   Overcast
9:33 AM 19.4 °F - 17.6 °F 93% 30.35 in 1.2 mi Calm Calm - N/A   Overcast
9:53 AM 19.9 °F 13.4 °F 16.0 °F 85% 30.44 in 1.0 mi WSW 4.6 mph - N/A   Overcast
10:29 AM 21.2 °F 16.4 °F 15.8 °F 80% 30.36 in 1.5 mi NNW 3.5 mph - N/A   Haze
10:53 AM 21.0 °F 14.6 °F 17.1 °F 85% 30.44 in 1.2 mi South 4.6 mph - N/A   Overcast
11:01 AM 21.2 °F - 17.6 °F 86% 30.36 in 0.8 mi Calm Calm - N/A   Overcast
11:13 AM 21.2 °F - 17.6 °F 86% 30.36 in 1.2 mi Calm Calm - N/A   Overcast
11:24 AM 21.2 °F - 17.6 °F 86% 30.35 in 2.5 mi Calm Calm - N/A   Overcast
11:33 AM 21.2 °F - 17.6 °F 86% 30.35 in 4.0 mi Calm Calm - N/A   Overcast
11:53 AM 21.0 °F 16.2 °F 17.1 °F 85% 30.43 in 4.0 mi SE 3.5 mph - N/A   Overcast
12:09 PM 21.2 °F - 17.6 °F 86% 30.34 in 1.8 mi Calm Calm - N/A   Overcast
12:38 PM 21.2 °F - 17.6 °F 86% 30.33 in 2.5 mi Calm Calm - N/A   Overcast
12:53 PM 21.0 °F - 17.1 °F 85% 30.40 in 1.5 mi Calm Calm - N/A   Overcast
1:21 PM 21.2 °F - 17.6 °F 86% 30.32 in 1.0 mi Calm Calm - N/A   Haze
1:28 PM 21.2 °F - 17.6 °F 86% 30.31 in 1.8 mi Calm Calm - N/A   Haze
1:35 PM 21.2 °F 16.4 °F 17.6 °F 86% 30.31 in 3.0 mi SSE 3.5 mph - N/A   Overcast
1:53 PM 21.0 °F - 17.1 °F 85% 30.39 in 4.0 mi Calm Calm - N/A   Overcast
2:53 PM 21.9 °F - 18.0 °F 85% 30.38 in 7.0 mi Calm Calm - N/A   Overcast
3:53 PM 21.9 °F - 17.1 °F 82% 30.37 in 7.0 mi Calm Calm - N/A   Overcast
4:53 PM 21.9 °F - 18.0 °F 85% 30.37 in 8.0 mi Calm Calm - N/A   Overcast
5:53 PM 21.9 °F - 18.0 °F 85% 30.37 in 6.0 mi Calm Calm - N/A   Overcast
6:53 PM 21.9 °F 14.5 °F 17.1 °F 82% 30.37 in 5.0 mi West 5.8 mph - N/A   Haze
7:53 PM 21.9 °F 15.7 °F 17.1 °F 82% 30.37 in 2.5 mi WSW 4.6 mph - N/A   Haze
8:17 PM 21.2 °F - 17.6 °F 86% 30.29 in 1.5 mi Calm Calm - N/A   Overcast
8:53 PM 21.0 °F - 18.0 °F 88% 30.38 in 1.2 mi Calm Calm - N/A   Overcast
9:51 PM 21.2 °F - 17.6 °F 86% 30.30 in 2.5 mi Calm Calm - N/A   Overcast
9:53 PM 21.0 °F - 17.1 °F 85% 30.38 in 3.0 mi Calm Calm - N/A   Overcast
10:00 PM 21.2 °F - 17.6 °F 86% 30.30 in 2.5 mi Calm Calm - N/A   Overcast
10:53 PM 21.0 °F - 17.1 °F 85% 30.38 in 2.5 mi Calm Calm - N/A   Overcast
11:15 PM 21.2 °F 13.6 °F 17.6 °F 86% 30.30 in 3.0 mi NW 5.8 mph - N/A   Overcast
11:53 PM 19.9 °F - 16.0 °F 85% 30.38 in 4.0 mi Calm Calm - N/A   Overcast